Preview of NWS' New Version of Forecast
This preview is not operational and should not be used for support decisions.

Regional Weather Roundup (RWR)

Issued by National Weather Service (NWS)

                            
000
ASPQ40 PGUM 240310
RWRPQ 
WEATHER ROUNDUP FOR THE MARIANAS AND MICRONESIA
NATIONAL WEATHER SERVICE TIYAN GU
100 PM CHST MON JUN 24 2019

GUZ001>004-240400-
MARIANA ISLANDS-
  
CITY           SKY/WX    TMP DP  RH WIND       PRES   REMARKS
GUAM AIRPORT   PTSUNNY   88  75  66 E15       29.90F HX  97           
ANDERSEN AFB   LGT RAIN  82  77  83 E16       29.91F HX  91           
ROTA AIRPORT   RAIN      84  77  79 NE20      29.90F HX  94           
TINIAN AP      PTSUNNY   90  75  62 E18       29.89F HX 100           
SAIPAN AP      MOSUNNY   90  77  66 E17       29.90F HX 102           

$$

PMZ161-240400-
REPUBLIC OF PALAU-
  
CITY           SKY/WX    TMP DP  RH WIND       PRES   REMARKS
KOROR AP       PTSUNNY   84  77  79 W12       29.84F HX  94           
KOROR WSO      NOT AVBL                                               

$$

PMZ171>174-240400-
FEDERATED STATES OF MICRONESIA-
  
CITY           SKY/WX    TMP DP  RH WIND       PRES   REMARKS
YAP AIRPORT    PTSUNNY   86  79  79 CALM      29.85F HX  99           
CHUUK AP       CLOUDY    86  84  94 NE9       29.82F HX 108           
POHNPEI AP     CLOUDY    84  77  79 SE9       29.83F HX  94           
POHNPEI WSO    CLOUDY    84  79  84 E6        29.85F HX  96           
KOSRAE AP      LGT RAIN  82  77  83 NE12      29.81S HX  91           

$$

PMZ181-240400-
REPUBLIC OF THE MARSHALL ISLANDS-
  
CITY           SKY/WX    TMP DP  RH WIND       PRES   REMARKS
KWAJALEIN AP   CLOUDY    82  81  94 NE10      29.84F HX  95           
MAJURO AP      NOT AVBL                                               
MAJURO WSO     LGT RAIN  79  77  94 SW10      29.82F                  

$$